Lambertville, OH

10:46 PM EDT on March 27, 2017 (GMT -0400)
Lambertville

Weather History for KDUH - March, 2013

Change the Weather History Date:

Friday, March 15, 2013

  Actual Average (KTOL) Record (KTOL)
Temperature  
Mean Temperature 38 °F -  
Max Temperature 44 °F 45 °F 78 °F (1990)
Min Temperature 32 °F 26 °F 3 °F (1993)
Degree Days  
Heating Degree Days 27    
Moisture  
Dew Point 30 °F    
Average Humidity 76    
Maximum Humidity 91    
Minimum Humidity 58    
Precipitation  
Precipitation 0.00 in - - ()
Sea Level Pressure  
Sea Level Pressure 29.93 in    
Wind  
Wind Speed 7 mph (WSW)    
Max Wind Speed 12 mph    
Max Gust Speed 17 mph    
Visibility 7 miles    
Events Rain    
Averages and records for this station are not official NWS values.
T = Trace of Precipitation, MM = Missing Value Source: NWS Daily Summary

Daily Weather History Graph

Daily Weather History Graph

Search for Another Location

Airport or City:

Trip Planner

Search our weather history database for the weather conditions in past years. The results will help you decide how hot, cold, wet, or windy it might be!

Date:

Astronomy

Mar. 15, 2013 Rise Set
Actual Time 7:45 AM EDT 7:41 PM EDT
Civil Twilight 7:18 AM EDT 8:09 PM EDT
Nautical Twilight 6:46 AM EDT 8:41 PM EDT
Astronomical Twilight 6:13 AM EDT 9:14 PM EDT
Moon 9:31 AM EDT (3/15) 11:58 PM EDT (3/15)
Length of Visible Light 12h 50m
Length of Day
11h 55m
Waxing Crescent, 15% of the Moon is Illuminated
Mar 15
Waxing Crescent
Mar 19
First Quarter
Mar 27
Full
Apr 3
Last Quarter
Apr 10
New

Hourly Weather History & Observations

Time (EDT) Temp. Windchill Dew Point Humidity Pressure Visibility Wind Dir Wind Speed Gust Speed Precip Events Conditions
12:15 AM 32.9 °F 27.5 °F 19.4 °F 58% 30.10 in 10.0 mi SW 5.8 mph - N/A   Clear
12:35 AM 33.1 °F 26.9 °F 20.1 °F 59% 30.09 in 10.0 mi WSW 6.9 mph - N/A   Clear
12:55 AM 33.8 °F 27.0 °F 21.2 °F 60% 30.09 in 10.0 mi WSW 8.1 mph - N/A   Scattered Clouds
1:15 AM 34.0 °F 27.2 °F 22.1 °F 62% 30.08 in 10.0 mi WSW 8.1 mph - N/A   Mostly Cloudy
1:35 AM 34.0 °F 28.0 °F 22.8 °F 64% 30.08 in 10.0 mi WSW 6.9 mph - N/A   Overcast
1:55 AM 33.8 °F 27.7 °F 23.0 °F 65% 30.07 in 10.0 mi WSW 6.9 mph - N/A   Mostly Cloudy
2:15 AM 33.3 °F 27.9 °F 23.2 °F 67% 30.07 in 10.0 mi WSW 5.8 mph - N/A   Scattered Clouds
2:35 AM 32.9 °F 25.9 °F 23.0 °F 67% 30.06 in 10.0 mi WSW 8.1 mph - N/A   Scattered Clouds
2:55 AM 33.1 °F 27.7 °F 23.2 °F 67% 30.05 in 10.0 mi WSW 5.8 mph - N/A   Mostly Cloudy
3:15 AM 33.3 °F 28.9 °F 23.5 °F 68% 30.05 in 10.0 mi WSW 4.6 mph - N/A   Overcast
3:35 AM 33.4 °F 28.1 °F 23.7 °F 68% 30.04 in 10.0 mi WSW 5.8 mph - N/A   Mostly Cloudy
3:55 AM 32.9 °F 26.7 °F 23.9 °F 69% 30.03 in 10.0 mi WSW 6.9 mph - N/A   Scattered Clouds
4:15 AM 32.5 °F 27.1 °F 24.3 °F 72% 30.02 in 10.0 mi SW 5.8 mph - N/A   Clear
4:35 AM 32.2 °F 27.7 °F 24.4 °F 73% 30.01 in 10.0 mi SW 4.6 mph - N/A   Clear
4:55 AM 32.0 °F 24.8 °F 24.6 °F 74% 30.00 in 10.0 mi SW 8.1 mph - N/A   Clear
5:15 AM 32.4 °F 24.6 °F 25.5 °F 76% 29.99 in 10.0 mi SW 9.2 mph - N/A   Scattered Clouds
5:35 AM 32.9 °F 24.7 °F 27.0 °F 79% 29.99 in 10.0 mi WSW 10.4 mph 16.1 mph N/A   Mostly Cloudy
5:55 AM 32.9 °F 25.3 °F 27.5 °F 81% 29.98 in 10.0 mi WSW 9.2 mph - N/A   Overcast
6:15 AM 33.1 °F 24.9 °F 28.2 °F 82% 29.98 in 10.0 mi WSW 10.4 mph - N/A   Overcast
6:35 AM 33.3 °F 24.6 °F 28.8 °F 84% 29.98 in 7.0 mi WSW 11.5 mph 17.3 mph N/A   Overcast
6:55 AM 33.4 °F 27.3 °F 28.8 °F 83% 29.97 in 7.0 mi WSW 6.9 mph - N/A   Overcast
7:15 AM 32.9 °F 25.3 °F 28.4 °F 84% 29.96 in 7.0 mi WSW 9.2 mph - N/A   Scattered Clouds
7:35 AM 32.5 °F 25.5 °F 28.4 °F 85% 29.95 in 7.0 mi WSW 8.1 mph - N/A   Clear
7:55 AM 32.2 °F 26.7 °F 28.6 °F 87% 29.95 in 7.0 mi WSW 5.8 mph - N/A   Clear
8:15 AM 32.4 °F 25.3 °F 28.9 °F 87% 29.95 in 5.0 mi WSW 8.1 mph - N/A   Scattered Clouds
8:35 AM 32.5 °F 24.8 °F 29.1 °F 87% 29.95 in 5.0 mi WSW 9.2 mph - N/A   Scattered Clouds
8:55 AM 32.9 °F 25.3 °F 29.3 °F 87% 29.95 in 5.0 mi WSW 9.2 mph - N/A   Scattered Clouds
9:15 AM 33.3 °F 27.1 °F 29.3 °F 85% 29.95 in 5.0 mi WSW 6.9 mph 16.1 mph N/A   Scattered Clouds
9:35 AM 33.6 °F 25.6 °F 29.3 °F 84% 29.94 in 5.0 mi SW 10.4 mph - N/A   Haze
9:55 AM 34.2 °F 27.5 °F 29.5 °F 83% 29.94 in 5.0 mi SW 8.1 mph - N/A   Haze
10:15 AM 35.1 °F 27.9 °F 29.7 °F 81% 29.93 in 7.0 mi WSW 9.2 mph - N/A   Scattered Clouds
10:35 AM 36.3 °F 29.5 °F 30.2 °F 78% 29.93 in 7.0 mi West 9.2 mph - N/A   Mostly Cloudy
10:55 AM 36.5 °F 29.2 °F 30.0 °F 77% 29.93 in 7.0 mi West 10.4 mph - N/A   Mostly Cloudy
11:15 AM 36.9 °F 31.4 °F 30.0 °F 76% 29.92 in 7.0 mi WSW 6.9 mph 16.1 mph N/A   Overcast
11:35 AM 37.0 °F 29.8 °F 30.2 °F 76% 29.92 in 7.0 mi West 10.4 mph - N/A   Overcast
11:55 AM 37.8 °F 30.7 °F 30.2 °F 74% 29.92 in 7.0 mi West 10.4 mph - N/A   Overcast
12:15 PM 38.3 °F 32.5 °F 30.4 °F 73% 29.91 in 7.0 mi West 8.1 mph - N/A   Mostly Cloudy
12:35 PM 39.0 °F 31.8 °F 30.6 °F 72% 29.92 in 7.0 mi West 11.5 mph 16.1 mph N/A   Mostly Cloudy
12:55 PM 39.4 °F 32.7 °F 30.9 °F 72% 29.92 in 7.0 mi West 10.4 mph - N/A   Mostly Cloudy
1:15 PM 40.5 °F 35.1 °F 31.1 °F 69% 29.91 in 7.0 mi West 8.1 mph - N/A   Mostly Cloudy
1:35 PM 41.2 °F 35.5 °F 31.3 °F 68% 29.91 in 7.0 mi West 9.2 mph - N/A   Mostly Cloudy
1:55 PM 41.9 °F 36.3 °F 31.6 °F 67% 29.91 in 10.0 mi West 9.2 mph - N/A   Scattered Clouds
2:15 PM 42.3 °F 36.8 °F 31.6 °F 66% 29.90 in 10.0 mi West 9.2 mph - N/A   Mostly Cloudy
2:35 PM 43.2 °F 40.5 °F 32.0 °F 65% 29.88 in 7.0 mi West 4.6 mph - N/A   Mostly Cloudy
2:55 PM 43.7 °F 39.7 °F 32.0 °F 63% 29.88 in 10.0 mi West 6.9 mph - N/A   Mostly Cloudy
3:15 PM 44.1 °F 39.5 °F 32.0 °F 63% 29.87 in 10.0 mi WSW 8.1 mph - N/A   Mostly Cloudy
3:35 PM 44.8 °F 40.4 °F 32.2 °F 61% 29.87 in 10.0 mi West 8.1 mph - N/A   Mostly Cloudy
3:55 PM 44.2 °F 39.7 °F 32.0 °F 62% 29.87 in 10.0 mi West 8.1 mph - N/A   Overcast
4:15 PM 44.2 °F 39.7 °F 32.4 °F 63% 29.87 in 10.0 mi WNW 8.1 mph - N/A   Overcast
4:35 PM 44.6 °F 40.2 °F 32.7 °F 63% 29.86 in 10.0 mi West 8.1 mph - N/A   Overcast
4:55 PM 44.8 °F 40.4 °F 32.7 °F 63% 29.86 in 10.0 mi West 8.1 mph - N/A   Overcast
5:15 PM 44.8 °F 41.6 °F 32.9 °F 63% 29.86 in 10.0 mi West 5.8 mph - N/A   Overcast
5:35 PM 44.6 °F 40.2 °F 33.4 °F 65% 29.86 in 7.0 mi West 8.1 mph - N/A   Overcast
5:55 PM 44.1 °F 39.5 °F 33.8 °F 67% 29.86 in 7.0 mi West 8.1 mph - N/A   Light Drizzle
6:15 PM 43.7 °F 41.1 °F 35.1 °F 72% 29.86 in 7.0 mi West 4.6 mph - N/A   Light Drizzle
6:35 PM 43.7 °F - 36.3 °F 75% 29.86 in 5.0 mi Calm Calm - N/A   Drizzle
6:55 PM 43.5 °F 41.9 °F 36.5 °F 76% 29.86 in 5.0 mi WNW 3.5 mph - N/A   Drizzle
7:15 PM 42.6 °F - 36.9 °F 80% 29.86 in 5.0 mi Calm Calm - N/A   Drizzle
7:35 PM 42.6 °F - 37.0 °F 81% 29.86 in 5.0 mi Calm Calm - N/A   Drizzle
7:55 PM 41.0 °F - 37.4 °F 87% 29.87 in 5.0 mi Calm Calm - N/A Rain Rain
8:15 PM 39.7 °F 35.6 °F 36.0 °F 86% 29.87 in 4.0 mi NE 5.8 mph - N/A Rain Light Rain
8:35 PM 38.7 °F 34.3 °F 35.2 °F 87% 29.87 in 4.0 mi NE 5.8 mph - N/A Rain Rain
8:55 PM 38.3 °F 35.9 °F 34.7 °F 87% 29.87 in 4.0 mi NE 3.5 mph - N/A Rain Rain
9:15 PM 37.9 °F 35.5 °F 34.9 °F 89% 29.87 in 3.0 mi ENE 3.5 mph - N/A   Drizzle
9:35 PM 37.2 °F 33.6 °F 34.2 °F 89% 29.87 in 2.5 mi ENE 4.6 mph - N/A Rain Light Rain
9:55 PM 36.5 °F 32.7 °F 33.8 °F 90% 29.87 in 2.5 mi ENE 4.6 mph - N/A Rain Light Rain
10:15 PM 36.1 °F 33.5 °F 33.6 °F 91% 29.86 in 2.5 mi East 3.5 mph - N/A Rain Light Rain
10:35 PM 35.8 °F 31.9 °F 33.3 °F 91% 29.86 in 3.0 mi East 4.6 mph - N/A Rain Light Rain
10:55 PM 35.6 °F 32.8 °F 33.1 °F 91% 29.86 in 2.5 mi ENE 3.5 mph - N/A Rain Light Rain
11:15 PM 35.6 °F 31.7 °F 32.9 °F 90% 29.85 in 2.5 mi East 4.6 mph - N/A Rain Light Rain
11:35 PM 35.2 °F 32.4 °F 32.9 °F 91% 29.85 in 2.5 mi ENE 3.5 mph - N/A   Light Drizzle
11:55 PM 35.2 °F 30.3 °F 32.9 °F 91% 29.83 in 2.5 mi ESE 5.8 mph - N/A   Drizzle